User: anonymous   Login
Location: Naloco
(16.5478°S, 37.1017°E)
Time: 22:26:22
(UTC+00:00)
Language:

DMSP B5D2-2 - Orbit

View from above orbital plane
View from above orbital plane
View from above satellite
View from above satellite

Ground track
Ground track

The orbit data is extracted from the following two-line orbital elements,

1 14506U 83113A   21169.58999656  .00000039  00000-0  32319-4 0  9992
2 14506  98.2999  10.5747 0010409 217.5542 208.6588 14.28154872954937
Epoch (UTC): 18 June 2021 14:09:35
Eccentricity: 0.0010409
inclination: 98.2999°
perigee height: 790 km
apogee height: 805 km
right ascension of ascending node: 10.5747°
argument of perigee: 217.5542°
revolutions per day: 14.28154872
mean anomaly at epoch: 208.6588°
orbit number at epoch: 95493

The dashed part of the orbit path shows where the satellite is in the earth's shadow,  

DLR